Tracking 34717 objects as of 14-Jul-2026
HD Live streaming from Space Station
objects crossing your sky now

SL-12 DEB

Track SL-12 DEB now!
10-day predictions


NORAD ID: 25684
Int'l Code: 1985-118X
Perigee: 451.8 km
Apogee: 15,301.4 km
Inclination: 64.7 °
Period: 282.1 minutes
Semi major axis: 14247 km
RCS: 0.0262 m2 (small)
Launch date: December 24, 1985
Source: Commonwealth of Independent States (former USSR) (CIS)
Launch site: TYURATAM MISSILE AND SPACE COMPLEX (TTMTR)

Note: This is SATELLITE DEBRIS
Your satellite tracking list
Your tracking list is empty




NASA's NSSDC Master Catalog

Two Line Element Set (TLE):
1 25684U 85118X   26195.04702664  .00000286  00000-0  30499-3 0  9994
2 25684  64.6733 275.5963 5211242  31.5679 351.2415  5.10493413502649
Source of the keplerian elements: AFSPC